Cape May, NJ

10:52 AM EST on February 24, 2017 (GMT -0500)
Cape May County

Weather History for KWWD - November, 2012

Change the Weather History Date:

Friday, November 2, 2012

  Actual Average Record
Temperature  
Mean Temperature 48 °F -  
Max Temperature 51 °F 58 °F 73 °F (2001)
Min Temperature 46 °F 44 °F 35 °F (2011)
Degree Days  
Heating Degree Days 16    
Moisture  
Dew Point 34 °F    
Average Humidity 58    
Maximum Humidity 66    
Minimum Humidity 47    
Precipitation  
Precipitation 0.00 in - - ()
Sea Level Pressure  
Sea Level Pressure 29.72 in    
Wind  
Wind Speed 13 mph (WNW)    
Max Wind Speed 20 mph    
Max Gust Speed 30 mph    
Visibility 10 miles    
Events      
Averages and records for this station are not official NWS values.
T = Trace of Precipitation, MM = Missing Value Source: NWS Daily Summary

Daily Weather History Graph

Daily Weather History Graph

Search for Another Location

Airport or City:

Trip Planner

Search our weather history database for the weather conditions in past years. The results will help you decide how hot, cold, wet, or windy it might be!

Date:

Astronomy

Nov. 02, 2012 Rise Set
Actual Time 7:28 AM EDT 5:57 PM EDT
Civil Twilight 7:00 AM EDT 6:24 PM EDT
Nautical Twilight 6:29 AM EDT 6:56 PM EDT
Astronomical Twilight 5:58 AM EDT 7:27 PM EDT
Moon 8:43 PM EDT (11/2) 10:46 AM EDT (11/2)
Length of Visible Light 11h 24m
Length of Day
10h 28m
Waning Gibbous, 87% of the Moon is Illuminated
Nov 2
Waning Gibbous
Nov 6
Last Quarter
Nov 13
New
Nov 20
First Quarter
Nov 28
Full

Hourly Weather History & Observations

Time (EDT) Temp. Windchill Dew Point Humidity Pressure Visibility Wind Dir Wind Speed Gust Speed Precip Events Conditions
12:15 AM 48.2 °F - 35.6 °F 62% 29.68 in 10.0 mi West 13.8 mph 21.9 mph N/A   Mostly Cloudy
12:35 AM 48.2 °F - 35.6 °F 62% 29.68 in 10.0 mi West 15.0 mph 20.7 mph N/A   Overcast
12:55 AM 48.2 °F - 35.6 °F 62% 29.69 in 10.0 mi West 13.8 mph 17.3 mph N/A   Overcast
1:15 AM 48.2 °F - 37.4 °F 66% 29.69 in 10.0 mi West 10.4 mph 16.1 mph N/A   Overcast
1:35 AM 48.2 °F - 37.4 °F 66% 29.68 in 10.0 mi West 15.0 mph 18.4 mph N/A   Overcast
1:55 AM 48.2 °F - 35.6 °F 62% 29.68 in 10.0 mi West 12.7 mph 17.3 mph N/A   Overcast
2:15 AM 48.2 °F - 35.6 °F 62% 29.69 in 10.0 mi West 11.5 mph 16.1 mph N/A   Overcast
2:35 AM 48.2 °F - 35.6 °F 62% 29.68 in 10.0 mi West 12.7 mph 18.4 mph N/A   Overcast
2:55 AM 48.2 °F - 35.6 °F 62% 29.68 in 10.0 mi West 10.4 mph 21.9 mph N/A   Mostly Cloudy
3:15 AM 48.2 °F - 35.6 °F 62% 29.68 in 10.0 mi West 12.7 mph 20.7 mph N/A   Mostly Cloudy
3:35 AM 48.2 °F - 35.6 °F 62% 29.68 in 10.0 mi West 12.7 mph 19.6 mph N/A   Mostly Cloudy
3:55 AM 48.2 °F - 35.6 °F 62% 29.68 in 10.0 mi West 11.5 mph 18.4 mph N/A   Mostly Cloudy
4:15 AM 48.2 °F - 35.6 °F 62% 29.68 in 10.0 mi West 9.2 mph 17.3 mph N/A   Mostly Cloudy
4:35 AM 48.2 °F - 35.6 °F 62% 29.68 in 10.0 mi West 12.7 mph 17.3 mph N/A   Mostly Cloudy
4:55 AM 48.2 °F - 35.6 °F 62% 29.68 in 10.0 mi West 12.7 mph 18.4 mph N/A   Overcast
5:15 AM 48.2 °F - 33.8 °F 58% 29.68 in 10.0 mi West 10.4 mph - N/A   Overcast
5:35 AM 48.2 °F - 33.8 °F 58% 29.68 in 10.0 mi WNW 11.5 mph 19.6 mph N/A   Mostly Cloudy
5:55 AM 48.2 °F - 33.8 °F 58% 29.68 in 10.0 mi WNW 8.1 mph 18.4 mph N/A   Overcast
6:15 AM 46.4 °F 41.5 °F 33.8 °F 62% 29.68 in 10.0 mi WNW 10.4 mph 16.1 mph N/A   Overcast
6:35 AM 46.4 °F 41.5 °F 33.8 °F 62% 29.69 in 10.0 mi WNW 10.4 mph - N/A   Overcast
6:55 AM 46.4 °F 41.1 °F 33.8 °F 62% 29.69 in 10.0 mi West 11.5 mph 18.4 mph N/A   Overcast
7:15 AM 46.4 °F 40.4 °F 33.8 °F 62% 29.69 in 10.0 mi WNW 13.8 mph 17.3 mph N/A   Overcast
7:35 AM 46.4 °F 41.5 °F 32.0 °F 57% 29.69 in 10.0 mi West 10.4 mph 18.4 mph N/A   Scattered Clouds
7:55 AM 46.4 °F 40.7 °F 33.8 °F 62% 29.70 in 10.0 mi West 12.7 mph 19.6 mph N/A   Clear
8:15 AM 46.4 °F 40.7 °F 33.8 °F 62% 29.70 in 10.0 mi West 12.7 mph - N/A   Clear
8:35 AM 46.4 °F 41.1 °F 33.8 °F 62% 29.71 in 10.0 mi West 11.5 mph 20.7 mph N/A   Partly Cloudy
8:55 AM 46.4 °F 40.7 °F 33.8 °F 62% 29.71 in 10.0 mi West 12.7 mph 24.2 mph N/A   Partly Cloudy
9:15 AM 48.2 °F - 35.6 °F 62% 29.71 in 10.0 mi West 16.1 mph 21.9 mph N/A   Partly Cloudy
9:35 AM 48.2 °F - 35.6 °F 62% 29.72 in 10.0 mi West 15.0 mph 20.7 mph N/A   Partly Cloudy
9:55 AM 48.2 °F - 33.8 °F 58% 29.71 in 10.0 mi West 16.1 mph 23.0 mph N/A   Partly Cloudy
10:15 AM 48.2 °F - 35.6 °F 62% 29.71 in 10.0 mi West 15.0 mph 20.7 mph N/A   Clear
10:35 AM 50.0 °F - 35.6 °F 58% 29.71 in 10.0 mi West 15.0 mph 19.6 mph N/A   Clear
10:55 AM 50.0 °F - 35.6 °F 58% 29.71 in 10.0 mi WNW 15.0 mph 21.9 mph N/A   Partly Cloudy
11:15 AM 50.0 °F - 35.6 °F 58% 29.71 in 10.0 mi WNW 15.0 mph 21.9 mph N/A   Partly Cloudy
11:35 AM 50.0 °F - 35.6 °F 58% 29.71 in 10.0 mi WNW 9.2 mph - N/A   Clear
11:55 AM 51.8 °F - 35.6 °F 54% 29.70 in 10.0 mi West 12.7 mph 17.3 mph N/A   Partly Cloudy
12:15 PM 51.8 °F - 35.6 °F 54% 29.69 in 10.0 mi West 10.4 mph - N/A   Mostly Cloudy
12:35 PM 50.0 °F - 33.8 °F 54% 29.69 in 10.0 mi WNW 12.7 mph - N/A   Overcast
12:55 PM 50.0 °F - 33.8 °F 54% 29.68 in 10.0 mi WNW 11.5 mph 16.1 mph N/A   Mostly Cloudy
1:15 PM 51.8 °F - 33.8 °F 50% 29.68 in 10.0 mi West 11.5 mph 17.3 mph N/A   Clear
1:35 PM 51.8 °F - 33.8 °F 50% 29.67 in 10.0 mi WNW 13.8 mph 19.6 mph N/A   Scattered Clouds
2:15 PM 51.8 °F - 33.8 °F 50% 29.67 in 10.0 mi WNW 10.4 mph 16.1 mph N/A   Mostly Cloudy
2:35 PM 51.8 °F - 33.8 °F 50% 29.67 in 10.0 mi WNW 10.4 mph 17.3 mph N/A   Scattered Clouds
2:55 PM 51.8 °F - 33.8 °F 50% 29.67 in 10.0 mi WNW 12.7 mph 18.4 mph N/A   Mostly Cloudy
3:15 PM 50.0 °F - 33.8 °F 54% 29.68 in 10.0 mi West 12.7 mph 19.6 mph N/A   Overcast
3:35 PM 48.2 °F - 35.6 °F 62% 29.68 in 10.0 mi WNW 12.7 mph 23.0 mph N/A   Overcast
3:55 PM 48.2 °F - 35.6 °F 62% 29.69 in 10.0 mi WNW 10.4 mph 17.3 mph N/A   Overcast
4:15 PM 50.0 °F - 35.6 °F 58% 29.69 in 10.0 mi WNW 9.2 mph - N/A   Overcast
4:35 PM 50.0 °F - 32.0 °F 50% 29.70 in 10.0 mi WNW 11.5 mph 25.3 mph N/A   Overcast
4:55 PM 50.0 °F - 32.0 °F 50% 29.70 in 10.0 mi WNW 12.7 mph 20.7 mph N/A   Mostly Cloudy
5:15 PM 50.0 °F - 32.0 °F 50% 29.71 in 10.0 mi WNW 10.4 mph 17.3 mph N/A   Mostly Cloudy
5:35 PM 50.0 °F - 32.0 °F 50% 29.72 in 10.0 mi WNW 10.4 mph 16.1 mph N/A   Mostly Cloudy
5:55 PM 50.0 °F - 30.2 °F 47% 29.73 in 10.0 mi WNW 12.7 mph 21.9 mph N/A   Overcast
6:15 PM 48.2 °F - 32.0 °F 54% 29.74 in 10.0 mi WNW 12.7 mph 19.6 mph N/A   Overcast
6:35 PM 48.2 °F - 33.8 °F 58% 29.75 in 10.0 mi West 11.5 mph 17.3 mph N/A   Overcast
6:55 PM 48.2 °F - 33.8 °F 58% 29.76 in 10.0 mi WNW 13.8 mph 25.3 mph N/A   Overcast
7:15 PM 48.2 °F - 33.8 °F 58% 29.77 in 10.0 mi WNW 9.2 mph 19.6 mph N/A   Overcast
7:35 PM 48.2 °F - 32.0 °F 54% 29.77 in 10.0 mi WNW 13.8 mph 21.9 mph N/A   Overcast
7:55 PM 48.2 °F - 32.0 °F 54% 29.77 in 10.0 mi WNW 13.8 mph 23.0 mph N/A   Overcast
8:15 PM 50.0 °F - 32.0 °F 50% 29.78 in 10.0 mi West 16.1 mph 25.3 mph N/A   Overcast
8:35 PM 48.2 °F - 33.8 °F 58% 29.78 in 10.0 mi WNW 19.6 mph 29.9 mph N/A   Overcast
8:55 PM 48.2 °F - 32.0 °F 54% 29.79 in 10.0 mi WNW 17.3 mph 25.3 mph N/A   Overcast
9:15 PM 48.2 °F - 32.0 °F 54% 29.80 in 10.0 mi WNW 16.1 mph 24.2 mph N/A   Overcast
9:35 PM 48.2 °F - 32.0 °F 54% 29.80 in 10.0 mi WNW 13.8 mph 19.6 mph N/A   Overcast
9:55 PM 48.2 °F - 30.2 °F 50% 29.81 in 10.0 mi WNW 16.1 mph 26.5 mph N/A   Overcast
10:15 PM 48.2 °F - 32.0 °F 54% 29.81 in 10.0 mi WNW 11.5 mph 19.6 mph N/A   Overcast
10:35 PM 48.2 °F - 33.8 °F 58% 29.81 in 10.0 mi NW 10.4 mph 17.3 mph N/A   Overcast
10:55 PM 48.2 °F - 33.8 °F 58% 29.82 in 10.0 mi NW 8.1 mph - N/A   Overcast
11:15 PM 48.2 °F - 33.8 °F 58% 29.82 in 10.0 mi NW 8.1 mph 16.1 mph N/A   Overcast
11:35 PM 48.2 °F - 33.8 °F 58% 29.83 in 10.0 mi NW 10.4 mph 17.3 mph N/A   Overcast
11:55 PM 48.2 °F - 33.8 °F 58% 29.83 in 10.0 mi NW 8.1 mph 16.1 mph N/A   Overcast